Dewpoint
-8 -6 -5 -6 -5 -4 -3 -2 0 2 3 3 4 3 4 4 4 2 1 0 1 4 4 4 5 5 5 5 5 4 4 4 4 5 3 1 -0 -4 -5 -6 -4 -2 -2
-2 -7 -7 -5 -5 -5 -4 -2 -1 -0 2 3 4 3 3 2 1 2 2 2 3 5 5 5 5 4 5 5 4 4 5 5 6 6 6 5 4 3 1 -1 -3 -4 -4
-2 -1 -2 -5 -6 -6 -3 -2 -1 -0 0 0 0 -1 -2 -1 -1 -1 0 3 4 5 5 5 4 3 4 3 4 5 5 6 6 6 6 6 7 7 4 5 6 6 5
-1 -1 -2 -1 -0 -1 -3 -3 -2 -1 -0 -0 -1 -1 -1 -2 -0 1 1 3 4 4 4 4 4 2 -0 2 3 4 6 6 6 6 6 6 6 7 6 6 6 6 8
-9 -10 -6 -2 -1 -2 -2 -1 -0 1 2 2 1 1 1 2 2 3 3 3 3 4 4 3 4 3 -1 -1 0 1 4 7 6 5 6 6 6 6 6 6 6 6 6
-10 -10 -10 -8 -8 -7 -7 -6 -6 -3 -2 -1 -0 1 1 0 0 0 0 0 1 1 2 3 3 2 -0 -1 -3 -2 -2 2 5 6 5 6 6 6 6 7 6 6 5
-10 -10 -10 -9 -9 -9 -8 -7 -6 -6 -7 -7 -7 -6 -5 -4 -4 -4 -2 -2 -2 -1 -1 -0 -1 -1 -1 -1 -2 -2 -3 -3 -1 1 5 6 6 6 6 6 7 7 6
-6 -6 -5 -5 -5 -5 -5 -5 -5 -6 -6 -6 -6 -6 -6 -6 -6 -7 -7 -7 -7 -6 -4 -2 -1 -1 -1 -1 -1 -1 -1 -3 -2 -1 -1 5 5 5 5 6 6 7 7
-5 -5 -5 -5 -5 -5 -6 -6 -7 -7 -7 -8 -8 -8 -8 -8 -7 -5 -5 -6 -7 -7 -8 -8 -7 -3 -1 -1 -0 -0 -1 -1 -2 -1 -2 1 1 5 5 5 6 7 7
-5 -6 -6 -6 -7 -8 -9 -10 -10 -10 -10 -10 -10 -10 -9 -9 -8 -8 -8 -7 -5 -4 -5 -7 -8 -8 -6 -3 -0 -0 -0 -0 -1 -3 -2 -1 0 3 5 5 6 7 6
-5 -4 -6 -8 -8 -9 -10 -10 -11 -12 -12 -12 -12 -12 -11 -10 -9 -8 -8 -8 -8 -7 -5 -4 -5 -8 -7 -6 -3 -1 0 0 -0 -2 -2 -2 -0 3 4 5 5 5 6
-6 -5 -9 -9 -9 -9 -9 -11 -13 -13 -14 -14 -14 -14 -14 -13 -12 -11 -10 -7 -7 -7 -7 -7 -5 -4 -6 -6 -4 -3 -2 -0 1 -0 -2 -1 0 0 2 2 2 2 1
-5 -7 -6 -7 -8 -10 -11 -12 -12 -12 -12 -13 -14 -15 -15 -15 -15 -12 -11 -10 -9 -7 -6 -5 -6 -5 -3 -4 -4 -2 -1 -0 1 1 -0 -2 2 0 2 3 2 2 -0
-5 -5 -7 -8 -10 -11 -12 -13 -12 -11 -11 -11 -11 -11 -12 -12 -13 -12 -10 -9 -8 -8 -7 -6 -5 -5 -4 -2 -3 -2 -1 0 1 1 1 1 -0 1 1 3 3 2 -0
-5 -6 -7 -9 -10 -11 -11 -11 -11 -10 -10 -11 -11 -11 -11 -9 -8 -7 -7 -7 -8 -7 -6 -7 -7 -5 -4 -3 -2 -2 -1 0 1 1 1 0 -1 -2 0 2 3 1 3
-5 -5 -7 -10 -11 -11 -10 -9 -8 -8 -9 -8 -7 -8 -8 -6 -7 -9 -10 -10 -9 -6 -5 -5 -6 -7 -6 -4 -3 -3 -2 -1 1 1 0 -0 1 -3 -1 1 2 2 3
-6 -7 -8 -9 -10 -9 -7 -6 -6 -7 -10 -10 -7 -7 -9 -13 -14 -16 -16 -17 -10 -6 -5 -4 -5 -5 -6 -7 -4 -3 -3 -2 -1 0 0 0 1 -0 -2 0 -0 1 4
-5 -6 -9 -9 -8 -6 -6 -5 -6 -8 -9 -17 -20 -20 -11 -10 -17 -21 -22 -21 -12 -3 -3 -3 -4 -4 -5 -5 -6 -4 -3 -2 -2 -1 0 1 1 1 -1 0 -2 -0 4
-5 -8 -10 -9 -7 -6 -5 -7 -8 -10 -15 -18 -20 -22 -22 -20 -20 -19 -20 -20 -19 -6 -3 -3 -3 -3 -3 -4 -5 -4 -3 -2 -2 -2 -0 1 1 0 0 1 -2 -2 0
-7 -7 -7 -7 -5 -5 -7 -8 -12 -15 -16 -17 -17 -19 -20 -20 -20 -19 -19 -17 -17 -12 -5 -4 -3 -3 -3 -3 -4 -3 -3 -2 -2 -2 -0 1 1 1 1 0 -1 -2 -2
-8 -5 -8 -8 -10 -9 -9 -10 -14 -18 -19 -19 -19 -19 -18 -18 -18 -18 -18 -15 -13 -11 -7 -4 -4 -3 -4 -4 -3 -3 -2 -1 -1 -1 -0 1 1 1 0 -1 -2 -3 -3
-6 -10 -10 -12 -15 -18 -17 -18 -20 -21 -21 -20 -19 -19 -19 -19 -18 -17 -17 -16 -13 -10 -5 -4 -3 -3 -3 -3 -2 -3 -2 -1 0 -1 -1 1 1 1 -0 -1 -3 -4 -5
-11 -15 -15 -15 -16 -16 -14 -15 -18 -17 -20 -21 -21 -21 -20 -19 -18 -16 -15 -14 -13 -8 -6 -4 -4 -4 -3 -3 -3 -2 -2 -1 -0 -1 -0 2 2 0 -1 -2 -3 -4 -6
-13 -14 -13 -13 -14 -14 -15 -15 -15 -15 -16 -20 -22 -22 -21 -21 -19 -16 -15 -14 -13 -10 -6 -5 -4 -5 -4 -3 -3 -3 -2 -2 -0 -0 0 1 1 0 -1 -3 -5 -6 -7
-12 -12 -14 -14 -12 -13 -15 -15 -13 -14 -14 -17 -18 -18 -17 -18 -19 -19 -15 -13 -14 -9 -7 -6 -5 -5 -4 -4 -4 -3 -3 -2 -1 -0 0 0 0 0 -1 -3 -5 -7 -8
-11 -12 -10 -11 -17 -17 -16 -15 -15 -14 -12 -13 -15 -16 -16 -17 -16 -16 -16 -15 -13 -12 -7 -7 -6 -5 -5 -4 -4 -3 -3 -2 -2 -1 -0 -0 -0 0 -1 -3 -6 -8 -10
Wind_Speed
11 7 6 8 8 9 9 11 9 6 4 3 5 7 11 13 14 12 11 13 14 16 18 18 17 17 16 16 17 19 21 22 23 26 30 32 32 33 34 36 36 36 36
13 10 8 8 9 10 9 9 10 7 5 7 9 10 11 11 11 11 11 11 14 14 15 16 18 19 18 17 18 19 20 19 16 18 22 19 23 24 24 25 28 30 31
12 11 11 10 9 8 8 8 10 9 7 8 9 10 12 13 13 13 12 12 12 14 16 17 18 18 17 18 16 16 15 14 15 12 10 7 6 15 13 11 12 16 18
9 9 9 8 9 9 8 8 8 9 9 10 11 12 13 14 15 16 16 15 14 15 16 16 15 15 16 15 15 14 13 12 14 14 14 15 19 14 17 12 13 15 15
10 10 8 7 8 8 8 7 8 8 9 10 11 12 13 14 14 14 15 15 15 16 16 17 17 16 15 15 16 16 13 11 13 13 16 17 18 19 24 31 26 25 27
10 8 9 8 7 8 8 7 6 6 7 9 10 12 13 14 15 15 15 14 15 16 17 17 18 18 17 16 17 19 16 14 15 15 14 17 19 20 22 25 29 31 32
9 10 10 10 10 11 11 9 7 7 8 9 10 11 13 15 17 18 18 18 18 17 16 17 18 19 20 20 20 19 20 18 16 15 17 19 21 22 23 26 29 30 31
6 7 8 9 9 9 9 9 10 10 11 10 10 11 12 14 16 18 19 20 20 20 20 20 21 22 22 23 23 23 22 22 20 20 20 20 21 22 24 26 27 30 28
2 4 5 6 8 8 11 12 12 12 13 14 13 14 14 15 16 18 19 20 21 22 22 22 24 25 25 26 26 26 25 24 23 24 24 23 22 19 21 22 25 28 29
4 7 8 8 9 10 11 13 15 17 18 18 18 18 18 18 19 18 19 20 22 22 24 25 25 26 26 26 28 29 28 26 25 26 25 24 24 23 22 22 23 25 28
9 3 5 7 8 9 12 15 18 21 22 22 23 23 23 23 22 22 22 23 24 24 25 25 25 26 27 27 28 30 29 28 28 28 26 26 26 24 24 25 27 31 31
8 2 4 7 10 12 16 20 22 23 24 25 25 26 27 27 27 26 25 24 25 25 25 26 27 27 27 27 28 29 30 30 29 29 29 28 27 25 25 24 25 27 28
8 2 6 11 15 18 21 24 25 26 27 29 29 30 30 30 31 31 31 30 28 28 27 26 26 27 27 27 27 28 29 30 30 30 31 29 28 28 25 25 27 28 28
2 7 11 15 20 23 24 26 28 29 30 31 31 32 32 32 31 32 33 32 31 30 30 29 28 26 26 27 28 28 29 30 31 31 30 31 29 29 27 26 27 28 30
7 11 18 22 25 27 28 29 30 31 32 32 31 31 33 33 33 31 30 31 32 32 30 30 30 29 28 26 25 27 29 30 31 31 32 31 30 28 27 26 27 27 27
12 18 21 24 28 30 31 32 32 31 30 29 28 28 28 29 30 32 32 32 33 33 32 31 30 30 30 28 27 26 28 30 31 32 33 30 29 29 27 25 25 23 24
19 21 23 26 29 29 30 32 31 31 29 28 27 27 27 29 30 32 33 33 33 33 32 31 30 30 28 29 29 27 28 30 32 32 32 31 30 29 27 25 24 22 21
19 20 26 31 32 32 31 29 28 29 28 27 26 25 26 29 31 32 33 33 34 32 32 32 31 30 29 27 28 29 28 29 31 33 32 31 30 29 27 25 24 22 21
22 27 30 32 34 32 29 29 27 27 28 27 26 25 26 29 31 32 33 33 35 33 32 31 30 31 31 28 26 27 29 29 30 32 32 30 29 28 26 25 24 22 21
29 32 33 32 27 29 26 27 28 27 27 28 28 27 28 30 31 31 32 32 34 34 33 33 30 29 30 29 26 24 28 30 29 31 32 29 29 28 26 26 24 24 20
32 34 29 23 22 23 24 27 29 30 29 28 29 29 30 31 32 32 32 32 31 31 34 34 34 33 31 28 23 22 24 27 28 30 31 29 27 27 27 25 24 22 20
28 22 23 24 26 25 24 26 29 28 28 29 29 29 29 30 32 32 33 32 33 32 32 31 34 33 32 30 27 21 21 21 24 29 29 27 24 26 26 25 22 21 20
22 22 22 24 25 25 25 28 29 29 30 31 32 32 32 31 31 32 33 33 34 31 30 29 32 37 32 31 30 29 21 21 22 27 27 24 24 25 25 25 22 21 19
21 21 23 25 27 28 28 29 30 29 29 31 32 33 35 36 35 33 33 34 34 32 30 29 32 36 39 34 33 34 28 21 20 22 23 25 25 26 24 24 23 21 20
24 26 28 30 32 32 33 33 33 32 30 29 30 33 33 34 36 38 36 35 36 31 31 34 34 35 39 36 34 32 31 29 22 22 21 26 29 29 26 23 21 20 19
31 32 34 32 33 33 34 35 34 31 29 29 29 30 32 34 36 37 40 39 38 36 33 33 31 34 34 35 34 33 29 27 25 29 27 27 32 28 25 23 20 18 18
Wind_Direction
8 346 332 334 340 347 352 6 19 27 11 323 303 298 304 299 300 304 303 295 291 293 301 305 302 303 301 296 292 290 288 282 279 283 280 276 273 270 267 265 264 263 263
20 18 351 335 337 347 345 355 1 358 336 311 303 304 307 307 309 313 310 299 299 298 298 300 305 303 297 299 297 297 297 290 288 291 295 303 287 279 274 270 266 265 263
10 12 14 8 354 339 351 344 348 348 334 326 318 312 309 308 307 302 301 301 295 291 297 302 306 309 306 304 296 294 298 300 298 298 285 297 281 310 298 260 259 273 266
356 355 354 359 4 6 351 339 337 336 333 325 318 313 310 310 308 306 303 300 294 291 291 294 298 305 308 308 298 291 285 283 290 289 281 274 270 288 295 280 267 265 266
3 0 352 345 347 341 339 340 342 342 334 331 326 323 318 317 312 309 307 305 301 297 293 291 291 295 303 303 303 297 292 283 275 280 284 281 278 275 275 288 292 286 280
26 24 25 21 8 352 336 330 338 337 325 323 324 321 318 314 310 310 306 302 300 298 296 292 289 287 289 297 301 295 293 289 277 265 271 277 279 278 278 279 285 288 291
46 49 52 47 39 34 32 23 10 356 343 335 330 323 320 316 312 308 304 300 296 292 292 289 286 287 288 291 294 299 297 292 286 281 274 271 271 274 275 278 282 285 290
57 58 56 50 45 37 35 30 22 12 7 1 354 345 333 325 320 315 311 307 302 297 293 288 284 282 282 284 286 288 292 293 287 289 285 277 273 277 274 276 282 287 285
53 76 74 57 46 34 24 18 11 3 355 351 345 339 334 327 320 317 316 311 307 303 299 293 285 282 281 280 282 283 285 289 286 282 281 281 284 282 279 276 274 282 285
165 104 80 61 46 38 29 19 12 5 358 353 350 346 340 332 325 320 315 309 305 304 301 297 293 288 282 278 278 278 279 283 285 285 282 280 282 273 266 269 272 278 280
196 86 58 37 30 24 17 12 6 0 355 351 347 343 339 335 330 324 318 312 308 305 301 297 293 289 286 283 279 277 277 278 280 284 281 281 278 277 275 270 267 272 276
183 119 52 36 20 11 4 358 353 349 346 341 338 334 331 328 325 321 317 313 310 306 301 298 295 292 286 283 280 276 273 273 275 281 284 279 280 278 276 277 277 278 280
160 97 19 15 9 1 353 348 344 341 337 335 332 329 326 323 320 318 315 312 310 306 304 299 294 291 286 282 279 276 272 270 271 276 281 280 277 278 277 278 280 284 287
55 8 4 1 352 346 342 339 336 333 331 329 329 327 324 321 317 312 311 309 309 305 302 299 298 292 288 282 278 276 273 271 271 274 277 282 276 275 278 278 281 288 292
3 1 353 346 341 338 335 333 331 329 327 325 324 321 319 319 318 317 314 311 308 308 307 301 294 291 289 283 282 277 275 273 273 276 276 275 286 274 275 276 279 287 296
346 340 338 337 335 329 327 325 324 323 323 322 321 322 320 317 316 317 318 316 314 312 308 306 302 294 286 285 282 281 280 272 269 271 275 276 279 281 273 273 275 281 292
331 324 319 320 319 318 316 318 317 319 320 319 317 319 318 316 316 317 318 320 317 312 310 307 305 301 294 285 281 279 278 276 271 268 271 273 275 285 275 274 273 273 288
299 310 315 313 311 310 309 311 310 312 314 317 315 317 309 309 313 315 317 318 319 314 312 309 307 304 298 293 284 279 277 275 272 267 266 269 272 276 276 274 273 273 284
299 304 309 307 304 303 306 308 308 309 312 314 317 317 315 313 314 315 317 317 317 313 310 309 307 307 305 299 292 284 278 274 274 268 264 263 266 270 273 272 272 275 281
297 298 303 304 299 300 301 302 308 311 314 316 316 313 313 314 315 317 319 317 320 317 314 313 308 306 304 302 297 289 285 277 275 271 264 259 261 264 266 267 270 274 279
302 301 301 300 300 298 298 299 306 310 315 316 313 309 309 311 313 316 317 317 318 316 311 312 315 313 310 306 299 289 288 282 278 277 268 260 258 262 261 262 264 271 275
298 295 296 296 299 303 306 305 306 313 313 312 311 313 314 314 315 316 316 316 320 318 311 310 311 313 314 314 308 293 286 284 281 277 270 261 259 258 257 259 262 264 266
293 300 302 305 307 308 310 307 308 312 311 309 310 311 312 312 314 316 318 318 318 316 308 304 307 310 312 311 309 310 289 282 283 275 270 258 256 254 252 254 256 257 259
299 308 309 307 307 308 305 304 308 310 307 303 302 303 305 309 311 311 312 314 314 313 304 298 302 308 310 309 312 311 307 286 284 283 267 256 253 252 251 250 252 254 252
296 302 302 302 300 305 304 304 308 310 304 297 294 296 302 305 306 306 306 308 309 309 302 302 297 300 302 306 308 304 299 295 282 284 272 258 249 246 246 247 247 249 248
296 296 301 305 306 305 304 306 309 308 304 297 293 296 298 300 301 300 300 301 305 308 301 302 297 296 297 304 302 298 286 282 268 270 271 257 250 247 246 245 244 243 244
Height
1510 1509 1509 1509 1508 1506 1505 1503 1501 1500 1499 1499 1499 1500 1500 1501 1500 1499 1499 1499 1499 1498 1495 1495 1497 1495 1495 1494 1492 1491 1490 1490 1489 1487 1486 1485 1486 1486 1488 1490 1491 1493 1495
1510 1509 1508 1507 1507 1506 1504 1503 1501 1500 1499 1499 1498 1497 1498 1498 1498 1497 1497 1497 1497 1496 1496 1495 1493 1492 1491 1490 1488 1487 1486 1485 1485 1484 1483 1479 1479 1480 1480 1481 1483 1485 1487
1510 1509 1507 1506 1505 1504 1502 1501 1500 1499 1498 1498 1497 1496 1495 1495 1495 1494 1494 1494 1494 1494 1493 1492 1490 1488 1487 1485 1484 1483 1482 1481 1482 1483 1484 1482 1478 1475 1476 1477 1478 1479 1479
1510 1508 1507 1505 1504 1502 1501 1500 1499 1498 1497 1496 1495 1494 1493 1492 1491 1490 1490 1489 1489 1489 1488 1487 1486 1485 1483 1482 1481 1480 1479 1479 1478 1479 1480 1479 1479 1477 1472 1472 1473 1474 1474
1509 1507 1505 1505 1503 1502 1500 1498 1498 1497 1496 1495 1494 1492 1490 1489 1488 1487 1486 1486 1485 1484 1483 1482 1482 1481 1480 1479 1478 1477 1475 1475 1475 1476 1475 1475 1475 1475 1473 1466 1466 1468 1468
1509 1508 1507 1505 1504 1502 1499 1498 1496 1494 1493 1492 1491 1490 1489 1487 1485 1484 1483 1482 1481 1480 1479 1478 1477 1476 1476 1475 1474 1473 1471 1471 1470 1470 1471 1471 1471 1469 1469 1466 1463 1461 1461
1509 1508 1507 1505 1504 1502 1500 1499 1497 1494 1492 1491 1489 1487 1486 1485 1484 1482 1479 1478 1476 1476 1475 1474 1473 1472 1472 1471 1470 1469 1468 1466 1465 1465 1465 1466 1465 1464 1464 1462 1459 1456 1455
1509 1508 1506 1505 1504 1503 1501 1499 1497 1495 1492 1490 1488 1486 1484 1482 1480 1479 1477 1475 1473 1471 1470 1469 1468 1467 1466 1465 1465 1464 1463 1462 1461 1460 1459 1459 1459 1459 1458 1458 1457 1452 1450
1510 1508 1506 1505 1504 1502 1500 1498 1496 1494 1493 1490 1487 1485 1482 1479 1477 1475 1473 1471 1469 1467 1465 1463 1462 1461 1460 1459 1459 1458 1457 1457 1456 1455 1453 1453 1452 1453 1453 1452 1452 1450 1444
1509 1508 1506 1505 1504 1502 1501 1499 1497 1495 1492 1490 1486 1483 1480 1478 1475 1471 1469 1467 1464 1462 1460 1458 1456 1455 1453 1453 1452 1451 1451 1450 1449 1448 1447 1447 1446 1446 1446 1446 1445 1444 1441
1508 1507 1506 1504 1503 1502 1500 1498 1495 1493 1491 1488 1484 1481 1478 1475 1472 1468 1465 1462 1460 1457 1455 1453 1450 1448 1447 1446 1445 1444 1444 1443 1443 1442 1441 1440 1440 1439 1439 1439 1439 1437 1436
1505 1505 1504 1502 1501 1500 1498 1496 1493 1490 1488 1485 1482 1478 1475 1471 1468 1465 1462 1458 1454 1452 1449 1447 1444 1442 1440 1439 1438 1436 1436 1436 1436 1436 1435 1434 1433 1432 1432 1431 1430 1429 1428
1504 1503 1503 1500 1498 1497 1495 1492 1489 1486 1483 1480 1477 1473 1469 1466 1463 1459 1455 1452 1448 1445 1443 1440 1437 1435 1434 1432 1430 1429 1429 1428 1428 1429 1428 1426 1426 1425 1424 1424 1422 1421 1420
1503 1502 1501 1499 1497 1494 1491 1488 1486 1483 1479 1475 1471 1468 1465 1461 1457 1453 1449 1445 1442 1438 1435 1433 1430 1428 1425 1424 1423 1422 1421 1420 1420 1420 1420 1419 1418 1417 1417 1416 1415 1414 1411
1501 1500 1498 1496 1494 1490 1487 1483 1480 1477 1474 1470 1467 1463 1459 1455 1451 1447 1444 1440 1436 1432 1428 1425 1423 1421 1418 1416 1415 1414 1413 1412 1412 1411 1411 1410 1410 1409 1409 1408 1408 1406 1404
1497 1496 1494 1492 1489 1485 1482 1479 1476 1473 1469 1465 1461 1458 1454 1450 1446 1441 1436 1433 1429 1424 1421 1417 1414 1412 1410 1409 1408 1406 1404 1403 1403 1402 1402 1402 1402 1400 1400 1400 1400 1400 1397
1493 1492 1491 1487 1484 1481 1477 1474 1470 1467 1464 1460 1456 1452 1448 1444 1440 1436 1430 1426 1421 1417 1413 1410 1407 1403 1401 1400 1399 1398 1396 1394 1393 1393 1393 1393 1393 1393 1392 1392 1392 1391 1391
1490 1488 1486 1482 1478 1476 1472 1467 1464 1461 1458 1453 1449 1445 1442 1438 1434 1429 1424 1420 1415 1410 1405 1401 1398 1395 1392 1391 1389 1388 1386 1384 1384 1383 1384 1384 1385 1386 1385 1384 1383 1383 1383
1486 1483 1478 1474 1472 1468 1465 1460 1457 1454 1450 1446 1443 1439 1435 1431 1428 1423 1418 1414 1408 1403 1399 1394 1390 1386 1383 1382 1380 1379 1376 1375 1374 1374 1374 1375 1376 1378 1378 1377 1376 1376 1376
1482 1476 1470 1467 1465 1462 1459 1454 1451 1447 1443 1440 1436 1433 1429 1425 1421 1417 1412 1407 1402 1396 1392 1386 1383 1379 1375 1373 1371 1370 1368 1365 1365 1364 1365 1367 1368 1369 1370 1370 1369 1368 1369
1472 1469 1464 1460 1458 1455 1451 1447 1444 1440 1436 1433 1429 1426 1423 1418 1415 1410 1406 1401 1397 1392 1387 1381 1375 1371 1368 1364 1363 1362 1360 1358 1356 1355 1355 1357 1360 1361 1361 1362 1362 1362 1362
1465 1462 1457 1454 1451 1448 1445 1441 1437 1434 1430 1426 1422 1418 1415 1411 1407 1403 1399 1395 1390 1385 1380 1376 1369 1365 1361 1357 1354 1353 1352 1351 1349 1347 1347 1349 1351 1352 1353 1354 1355 1355 1355
1457 1454 1452 1448 1444 1442 1440 1435 1430 1427 1423 1419 1414 1411 1407 1404 1400 1395 1391 1387 1383 1378 1374 1370 1364 1358 1355 1351 1348 1344 1343 1342 1341 1339 1339 1341 1342 1344 1344 1346 1347 1348 1348
1451 1449 1446 1442 1438 1435 1431 1427 1424 1421 1416 1411 1407 1403 1399 1395 1391 1388 1384 1379 1375 1371 1368 1364 1359 1353 1347 1344 1341 1337 1334 1333 1332 1332 1331 1332 1334 1336 1337 1338 1339 1340 1341
1445 1442 1438 1434 1430 1427 1422 1419 1416 1412 1407 1403 1399 1395 1391 1387 1382 1378 1375 1371 1367 1364 1359 1355 1352 1347 1339 1337 1334 1331 1328 1326 1325 1325 1324 1324 1324 1326 1328 1330 1332 1333 1334
1437 1434 1430 1426 1421 1418 1413 1409 1406 1403 1398 1394 1391 1387 1383 1378 1373 1368 1363 1361 1357 1354 1351 1347 1344 1337 1334 1328 1325 1322 1319 1318 1318 1316 1315 1315 1316 1319 1322 1324 1326 1326 1328